VIASAT-2                
1 42740U 17029A   19259.46202777 -.00000272  00000-0  00000+0 0  9998
2 42740   0.0181 198.3092 0000203  13.5178 239.7446  1.00271752  8469
EUTELSAT 172B           
1 42741U 17029B   19259.15134950 -.00000013  00000-0  00000+0 0  9995
2 42741   0.0132 132.6071 0000084  43.4704  45.2298  1.00273067  8970
ARIANE 5 R/B            
1 42742U 17029C   19259.78166329  .00000076  00000-0  24886-3 0  9990
2 42742   5.8395  86.6359 7257913 142.0166 303.1527  2.28676606 19130
ARIANE 5 DEB [SYLDA]    
1 42743U 17029D   19258.80409768  .00003596  00000-0  18225-2 0  9999
2 42743   5.8864  77.2362 7192420 162.2346 250.4405  2.37689467 19573